Regional Weather Roundup
Issued by NWS

Home | Current Version | Previous Version | Text Only | Print | Product List | Glossary Off
Versions: 1 2 3 4 5 6 7 8 9 10 11 12 13 14 15 16 17 18 19 20 21 22 23 24 25 26 27 28 29 30 31 32 33 34 35 36 37 38 39 40 41 42 43 44 45 46 47 48 49 50

000
ASUS43 KMKX 261921
RWRWI

WISCONSIN REGIONAL WEATHER ROUNDUP
NATIONAL WEATHER SERVICE MILWAUKEE/SULLIVAN WI
100 PM CST WED NOV 26 2014

NOTE: "FAIR" INDICATES FEW OR NO CLOUDS BELOW 12,000 FEET WITH NO
SIGNIFICANT WEATHER AND/OR OBSTRUCTIONS TO VISIBILITY.

WIZ001-002-006>008-014>016-023>028-262000-
NORTHWEST WISCONSIN

CITY           SKY/WX    TMP DP  RH WIND       PRES   REMARKS
SUPERIOR ARPT  CLOUDY    23  13  64 N8        30.23R WCI  14
ASHLAND        CLOUDY    25  20  81 N8        30.19S HAZE    WCI  16
HAYWARD        CLOUDY    23  17  78 VRB3      30.16S
SIREN          PTSUNNY   25  15  66 N8        30.19S WCI  16
CUMBERLAND     CLOUDY    23  18  80 NW9       30.15R HAZE    WCI  13
RICE LAKE      MIX PCPN  25  18  76 N5        30.17S WCI  19
CHETEK         CLOUDY    25  18  72 NW3       30.16S
LADYSMITH      LGT SNOW  24  19  82 CALM      30.15F VSB 1
EAU CLAIRE     LGT SNOW  24  18  77 N8        30.16R WCI  15
MENOMONIE      LGT SNOW  25  20  83 N6        30.17S WCI  18
NEW RICHMOND   LGT SNOW  26  21  83 N6        30.17S WCI  19
OSCEOLA        LGT SNOW  25  21  83 NW8       30.21R WCI  17
$$

WIZ003>005-009-010-017-018-262000-
NORTH CENTRAL WISCONSIN

CITY           SKY/WX    TMP DP  RH WIND       PRES   REMARKS
MANITOWISH WTR LGT SNOW  20  18  89 NW6       30.10S WCI  13
ARBOR VITAE    LGT SNOW  23  19  83 W5        30.10S WCI  17
WOODRUFF       LGT SNOW  23  19  83 W5        30.10S WCI  17
RHINELANDER    LGT SNOW  21  16  81 W6        30.10S WCI  13
EAGLE RIVER    LGT SNOW  21  15  75 W6        30.09S WCI  14
LAND O LAKES   LGT SNOW  22  18  85 W6        30.10S WCI  14
PHILLIPS       LGT SNOW  22  18  83 W6        30.11S WCI  15
TOMAHAWK       LGT SNOW  23  16  75 CALM      30.11F
MEDFORD        LGT SNOW  24  16  73 CALM      30.10S
MERRILL        CLOUDY    24  17  72 NW3       30.11F
$$

WIZ029-030-035-036-043>047-262000-
CENTRAL WISCONSIN

CITY           SKY/WX    TMP DP  RH WIND       PRES   REMARKS
WAUSAU         CLOUDY    24  18  77 W3        30.11S
MOSINEE        PTSUNNY   23  21  93 CALM      30.13S
MARSHFIELD     CLOUDY    25  16  68 CALM      30.11F
STEVENS POINT  MOSUNNY   20  16  86 CALM      30.14R
WAUPACA        CLOUDY    24  21  90 CALM      30.16S
WAUTOMA        MOSUNNY   22  17  81 CALM      30.16S
WISC RAPIDS    PTSUNNY   24  16  71 CALM      30.15S
CAMP DOUGLAS   CLOUDY    25  21  86 E3        30.13S
$$

WIZ011>013-019>022-031-037>040-048>050-262000-
NORTHEAST WISCONSIN

CITY           SKY/WX    TMP DP  RH WIND       PRES   REMARKS
ANTIGO         CLOUDY    19  18  96 CALM      30.10S
SHAWANO        CLOUDY    24  19  83 CALM      30.15S
OCONTO         CLOUDY    23  19  83 N5        30.16S WCI  17
STURGEON BAY   CLOUDY    25  16  68 NW8       30.15S WCI  16
GREEN BAY      CLOUDY    25  19  78 W3        30.15F
MANITOWOC      PTSUNNY   27  21  78 N5        30.15S WCI  22
APPLETON       CLOUDY    23  19  86 CALM      30.15R
CLINTONVILLE   CLOUDY    21  18  86 CALM      30.15S
OSHKOSH        CLOUDY    23  17  78 MISG      30.14S
$$

WIZ032>034-041-042-053>061-262000-
SOUTHWEST WISCONSIN

CITY           SKY/WX    TMP DP  RH WIND       PRES   REMARKS
LA CROSSE      CLOUDY    28  19  69 NW3       30.15R
SPARTA         CLOUDY    27  18  69 NE5       30.15R WCI  22
VIROQUA        PTSUNNY   27  21  80 NE3       30.09S
BOSCOBEL       CLOUDY    24  19  81 NE6       30.13R HAZE    WCI  17
PRAIRIE DU CHI CLOUDY    28  22  78 E3        30.11R
PLATTEVILLE    CLOUDY    25  23  93 E13       30.08S WCI  13
$$

WIZ056-057-062-063-064-067-068-262000-
SOUTH CENTRAL WISCONSIN

CITY           SKY/WX    TMP DP  RH WIND       PRES   REMARKS
REEDSBURG      CLOUDY    21  17  86 CALM      30.13R
BARABOO/DELLS  CLOUDY    19  18  93 NE3       30.13R FOG
LONE ROCK      CLOUDY    26  18  71 NE6       30.13S HAZE    WCI  19
MINERAL POINT  LGT SNOW  27  25  93 E6        30.08S WCI  20
MADISON        CLOUDY    23  18  81 N3        30.12F HAZE
MIDDLETON      CLOUDY    24  20  87 CALM      30.12S
WATERTOWN      CLOUDY    18  17  98 CALM      30.12F FOG
MONROE         CLOUDY    25  25 100 E5        30.08R WCI  19
JANESVILLE     NOT AVBL
$$

WIZ051-052-058>065-066-070>072-262000-
SOUTHEAST WISCONSIN

CITY           SKY/WX    TMP DP  RH WIND       PRES   REMARKS
MILWAUKEE      CLOUDY    28  20  71 CALM      30.12F
WAUKESHA       MOSUNNY  -51  19 100 NW3       30.12F
MILWAUKEE/TIMM SUNNY     28  19  69 CALM      30.13S
RACINE         CLOUDY    28  21  75 VRB5      30.13F WCI  23
BURLINGTON     PTSUNNY   24  20  84 CALM      30.11S
KENOSHA        CLOUDY    28  23  81 CALM      30.11F HAZE
FOND DU LAC    CLOUDY    23  18  81 SW3       30.14S
SHEBOYGAN      CLOUDY    25  19  78 N5        30.14S WCI  19
WEST BEND      PTSUNNY   28  19  69 CALM      30.12S
JUNEAU         PTSUNNY   20  17  86 CALM      30.13F FOG
$$

LSZ147-162-262000-
LAKE SUPERIOR

STATION/POSITION TIME  TEMP    WIND        PRES    WAVE
                       AIR SEA DIR/SP/G            HT/PER
                 (UTC) (F)     (DEG/KT/KT) (MB)    (FT/S)
DEVILS ISLAND    1900   24     350/ 13/ 15 1023.7R
PORT WING        1800   24     330/  8/ 10 1022.7
SAXON HARBOR     1800   24     190/  4/  7 1021.7F
$$

LMZ867-665-643>646-262000-
LAKE MICHIGAN

STATION/POSITION TIME  TEMP    WIND        PRES    WAVE
                       AIR SEA DIR/SP/G            HT/PER
                 (UTC) (F)     (DEG/KT/KT) (MB)    (FT/S)
CHAMBERS ISLAND  1800   24     260/  3/  5 1021.3F
N MID LAKE BUOY  1850   27 42  320/  8/ 12 1021.7F   1/ 3
NORTHPORT PIER   1800   27     270/  3/  8 1021.0F
SISTER BAY       1743             CALM       N/A
ALGOMA LAKESHORE 1813          320/  6/  9   N/A
KEWAUNEE LAKESHO 1800   25     310/  5/  9 1020.0F
SHEBOYGAN LAKESH 1900   26 34  300/  5/  6 1022.0S
PORT WASHINGTON  1800   29      70/  2/  4 1021.3F
MILWAUKEE LAKESH 1900   29     110/  2/  3   N/A
S MID LAKE BUOY  1850   30 42  180/  8/ 10 1021.0F   1/ 3
KENOSHA   LAKESH 1900   28     360/  2/  4 1020.0F
$$

TC  - TEMPERATURE IN CELSIUS
VSB - VISIBILITY IN STATUTE MILES
WCI - WIND CHILL INDEX
HX  - HEAT INDEX




USA.gov is the U.S. government's official web portal to all federal, state and local government web resources and services.